Overview Statistics Trail Chart Weather Telemetry Raw packets
 

This is the latest recevied weather packets stored in our database for station/object K6CED. If no packets are shown the sender has not sent any weather packets the latest 10 day(s).

<< 109 110 111 112 113 114 >>
Time Temp. Humidity Pressure Rain* Wind** Luminosity Snow
1787840370 24.44° C 76% 1015.4 hPa 0 mm - 89 W/m² -
1787840066 23.89° C 76% 1015.3 hPa 0 mm - 74 W/m² -
1787839761 23.89° C 77% 1015.1 hPa 0 mm - 63 W/m² -
1787839455 23.89° C 77% 1015.2 hPa 0 mm - 52 W/m² -
1787839154 23.89° C 78% 1015.2 hPa 0 mm - 48 W/m² -
1787838854 23.33° C 78% 1014.9 hPa 0 mm - 45 W/m² -
1787838548 23.33° C 78% 1015 hPa 0 mm - 40 W/m² -
1787838247 22.78° C 79% 1014.8 hPa 0 mm - 32 W/m² -
1787837946 22.78° C 79% 1014.8 hPa 0 mm - 24 W/m² -
1787837645 22.78° C 80% 1014.5 hPa 0 mm - 16 W/m² -
1787837341 22.78° C 80% 1014.7 hPa 0 mm - 9 W/m² -
1787837036 22.78° C 80% 1014.8 hPa 0 mm - 5 W/m² -
1787836735 22.78° C 81% 1014.7 hPa 0 mm - 3 W/m² -
1787836430 22.78° C 81% 1014.4 hPa 0 mm - 1 W/m² -
1787836125 23.33° C 81% 1014.5 hPa 0 mm - 0 W/m² -
1787835821 23.33° C 80% 1014.5 hPa 0 mm - 0 W/m² -
1787835520 23.33° C 81% 1014.5 hPa 0 mm - 0 W/m² -
1787835217 23.33° C 81% 1014.8 hPa 0 mm - 0 W/m² -
1787834916 23.33° C 81% 1014.3 hPa 0 mm - 0 W/m² -
1787834615 23.33° C 81% 1014.4 hPa 0 mm - 0 W/m² -
1787834310 23.33° C 81% 1014.6 hPa 0 mm - 0 W/m² -
1787834006 23.33° C 81% 1014.6 hPa 0 mm - 0 W/m² -
1787833701 23.33° C 81% 1014.8 hPa 0 mm - 0 W/m² -
1787833396 23.33° C 81% 1014.4 hPa 0 mm - 0 W/m² -
1787833092 23.33° C 79% 1014.7 hPa 0 mm - 0 W/m² -

* Rain latest hour (hover to see other rain measurements)
** Current wind speed in m/s (hover to see current wind gust speed)